FW3854 Weather Reports


time (UTC)temp
F
wind
direction
speed
knots
gust
knots
rain 1hr
in
rain 24hr
in
rain mn
in
humidity
%
barometer
mb
20260504130515 57 231 1.7 5.2 0.00 0.00 0.00 58 1010.8
20260504110546 44 233 0.0 0.0 0.00 0.00 0.00 74 1011.5
20260504100546 44 233 0.0 0.0 0.00 0.00 0.00 75 1011.4
20260504081602 46 233 0.9 2.6 0.00 0.00 0.00 67 1011.9
20260504081041 45 233 0.9 2.6 0.00 0.00 0.00 68 1011.9
20260504080520 45 260 0.9 1.7 0.00 0.00 0.00 71 1011.9
20260504050518 46 266 0.0 0.0 0.00 0.00 0.00 70 1012.6
20260504045512 46 266 0.0 0.0 0.00 0.00 0.00 70 1012.7
20260504045053 46 266 0.0 0.0 0.00 0.00 0.00 68 1012.7
20260504044506 46 266 0.0 0.0 0.00 0.00 0.00 71 1012.7
20260504044048 46 266 0.0 0.0 0.00 0.00 0.00 70 1012.6
20260504043535 46 266 0.0 0.0 0.00 0.00 0.00 68 1012.7
20260504043046 46 266 0.0 0.0 0.00 0.00 0.00 64 1012.7
20260504042524 46 266 0.0 0.0 0.00 0.00 0.00 66 1012.5
20260504042002 46 266 0.0 0.0 0.00 0.00 0.00 66 1012.7
20260504041518 46 266 0.0 0.0 0.00 0.00 0.00 68 1012.7
20260504041102 46 266 0.0 0.0 0.00 0.00 0.00 66 1012.7
20260504040542 46 266 0.0 0.0 0.00 0.00 0.00 64 1012.8
20260504040056 46 266 0.0 0.0 0.00 0.00 0.00 63 1012.8
20260504035535 46 266 0.0 0.0 0.00 0.00 0.00 63 1012.7
20260504035012 47 266 0.0 0.0 0.00 0.00 0.00 64 1012.8
20260504034531 47 266 0.0 0.0 0.00 0.00 0.00 60 1012.8
20260504034010 47 266 0.0 0.0 0.00 0.00 0.00 60 1012.8
20260504033551 46 266 0.0 0.0 0.00 0.00 0.00 59 1012.8
20260504033004 46 266 0.0 0.0 0.00 0.00 0.00 60 1012.8
20260504032546 46 266 0.0 0.0 0.00 0.00 0.00 60 1012.6
20260504032024 47 266 0.0 0.0 0.00 0.00 0.00 60 1012.7
20260504031559 47 266 0.0 0.0 0.00 0.00 0.00 59 1012.8
20260504031017 48 266 0.0 0.9 0.00 0.00 0.00 59 1012.8
20260504030602 48 266 0.0 0.9 0.00 0.00 0.00 56 1012.7
20260504030012 48 266 0.0 0.0 0.00 0.00 0.00 56 1012.6
20260504025555 48 266 0.0 0.0 0.00 0.00 0.00 57 1012.7
20260504025034 48 266 0.0 0.0 0.00 0.00 0.00 55 1012.6
20260504024551 48 266 0.0 0.0 0.00 0.00 0.00 54 1012.6
20260504024028 48 266 0.0 0.0 0.00 0.00 0.00 53 1012.8
20260504023506 48 266 0.0 0.0 0.00 0.00 0.00 53 1012.8
20260504023024 48 266 0.0 1.7 0.00 0.00 0.00 55 1012.7
20260504022502 48 266 0.0 1.7 0.00 0.00 0.00 53 1012.7
20260504022042 48 266 0.0 1.7 0.00 0.00 0.00 55 1012.8
20260504021547 48 266 0.0 1.7 0.00 0.00 0.00 55 1012.8
20260504021026 48 266 0.0 0.9 0.00 0.00 0.00 53 1012.7
20260504020505 49 266 0.0 1.7 0.00 0.00 0.00 54 1012.8
20260504020014 49 266 0.0 1.7 0.00 0.00 0.00 52 1012.7
20260504015553 49 279 0.9 1.7 0.00 0.00 0.00 54 1012.7
20260504015035 49 279 0.0 1.7 0.00 0.00 0.00 50 1012.5
20260504014539 49 279 0.0 1.7 0.00 0.00 0.00 53 1012.5
20260504014017 49 279 0.0 0.9 0.00 0.00 0.00 52 1012.3
20260504013556 49 279 0.0 2.6 0.00 0.00 0.00 50 1012.3
20260504013101 50 279 0.0 2.6 0.00 0.00 0.00 50 1012.3
20260504012540 50 301 0.0 0.0 0.00 0.00 0.00 50 1012.2
20260504012023 50 301 0.0 0.0 0.00 0.00 0.00 49 1012.1
20260504011525 51 301 0.0 0.0 0.00 0.00 0.00 48 1012.1
20260504011002 51 301 0.0 1.7 0.00 0.00 0.00 48 1012.0
20260504010544 51 301 0.0 1.7 0.00 0.00 0.00 47 1012.0
20260504010049 51 301 0.0 1.7 0.00 0.00 0.00 48 1012.1
20260504005528 52 301 0.0 1.7 0.00 0.00 0.00 47 1012.0
20260504005008 53 301 0.0 2.6 0.00 0.00 0.00 47 1011.9
20260504004514 53 295 0.0 2.6 0.00 0.00 0.00 44 1011.8
20260504004057 54 295 0.0 3.5 0.00 0.00 0.00 42 1011.9
20260504003536 55 295 0.9 5.2 0.00 0.00 0.00 39 1011.9
20260504003043 55 301 2.6 5.2 0.00 0.00 0.00 38 1011.9
20260504002518 56 306 0.9 3.5 0.00 0.00 0.00 39 1011.8
20260504002101 56 297 2.6 4.3 0.00 0.00 0.00 39 1011.8
20260504001603 56 285 1.7 4.3 0.00 0.00 0.00 39 1011.7
20260504001041 56 292 2.6 5.2 0.00 0.00 0.00 38 1011.8
20260504000519 56 299 2.6 5.2 0.00 0.00 0.00 37 1011.7
20260504000042 56 266 2.6 6.1 0.00 0.00 0.00 36 1011.7
20260503235513 55 262 0.9 2.6 0.00 0.00 0.00 38 1011.9
20260503235056 55 276 0.9 2.6 0.00 0.00 0.00 40 1011.8
20260503234511 56 271 0.0 0.0 0.00 0.00 0.00 37 1011.8
20260503234054 57 271 0.0 2.6 0.00 0.00 0.00 39 1011.9
20260503233534 57 269 0.9 3.5 0.00 0.00 0.00 36 1011.9
20260503233049 57 222 0.9 3.5 0.00 0.00 0.00 36 1011.8
20260503232530 58 209 0.0 4.3 0.00 0.00 0.00 35 1011.8
20260503232005 58 208 0.9 6.1 0.00 0.00 0.00 34 1011.9
20260503231522 58 283 0.9 6.1 0.00 0.00 0.00 34 1011.8
20260503231105 58 246 1.7 4.3 0.00 0.00 0.00 34 1011.8
20260503230543 59 211 0.9 2.6 0.00 0.00 0.00 34 1011.8
20260503230059 59 242 0.9 3.5 0.00 0.00 0.00 34 1011.7
20260503225533 59 208 0.9 3.5 0.00 0.00 0.00 33 1011.6
20260503225014 59 208 0.9 2.6 0.00 0.00 0.00 34 1011.7
20260503224529 59 233 0.0 1.7 0.00 0.00 0.00 34 1011.7
20260503224008 59 222 0.0 5.2 0.00 0.00 0.00 33 1011.8
20260503223548 59 275 2.6 5.2 0.00 0.00 0.00 33 1011.7
20260503223052 59 240 0.0 4.3 0.00 0.00 0.00 33 1011.5
20260503222529 59 266 2.6 6.1 0.00 0.00 0.00 33 1011.5
20260503222008 59 190 1.7 5.2 0.00 0.00 0.00 33 1011.5
20260503221523 59 304 1.7 6.1 0.00 0.00 0.00 34 1011.5
20260503221002 59 264 1.7 6.1 0.00 0.00 0.00 32 1011.6
20260503220545 60 289 1.7 6.1 0.00 0.00 0.00 33 1011.5
20260503220051 60 312 2.6 6.1 0.00 0.00 0.00 33 1011.5
20260503215532 60 319 0.0 5.2 0.00 0.00 0.00 32 1011.5
20260503215006 60 219 2.6 5.2 0.00 0.00 0.00 32 1011.8
20260503214524 60 281 0.0 7.0 0.00 0.00 0.00 33 1011.7
20260503214001 60 322 3.5 7.0 0.00 0.00 0.00 33 1011.7
20260503213543 60 332 1.7 7.0 0.00 0.00 0.00 35 1011.8
20260503213049 60 326 1.7 6.1 0.00 0.00 0.00 36 1011.9
20260503212527 60 189 1.7 7.0 0.00 0.00 0.00 33 1011.9
20260503212005 60 297 1.7 7.0 0.00 0.00 0.00 33 1011.9
20260503211513 60 289 2.6 7.0 0.00 0.00 0.00 34 1011.9
20260503211056 59 293 4.3 8.7 0.00 0.00 0.00 35 1011.9
20260503210532 59 275 2.6 8.7 0.00 0.00 0.00 33 1011.9
20260503210038 59 306 4.3 8.7 0.00 0.00 0.00 35 1011.9
20260503205516 59 318 5.2 8.7 0.00 0.00 0.00 35 1012.0
20260503205100 59 219 3.5 8.7 0.00 0.00 0.00 32 1012.1
20260503204604 60 288 1.7 9.6 0.00 0.00 0.00 33 1012.1
20260503204041 60 324 5.2 9.6 0.00 0.00 0.00 34 1012.1
20260503203525 60 327 3.5 7.0 0.00 0.00 0.00 36 1012.2
20260503203041 59 283 2.6 7.8 0.00 0.00 0.00 34 1012.2
20260503202515 59 248 4.3 9.6 0.00 0.00 0.00 35 1012.4
20260503202101 59 293 5.2 9.6 0.00 0.00 0.00 34 1012.3
20260503201603 59 294 3.5 8.7 0.00 0.00 0.00 37 1012.4
20260503201045 59 342 3.5 8.7 0.00 0.00 0.00 34 1012.4
20260503200519 59 331 3.5 8.7 0.00 0.00 0.00 36 1012.5
20260503200035 59 305 2.6 9.6 0.00 0.00 0.00 34 1012.6
20260503195513 59 274 5.2 9.6 0.00 0.00 0.00 35 1012.6
20260503195055 59 324 1.7 7.0 0.00 0.00 0.00 35 1012.7
20260503194511 59 328 2.6 10.4 0.00 0.00 0.00 34 1013.0
20260503194051 59 330 7.0 10.4 0.00 0.00 0.00 35 1012.9
20260503193532 59 175 1.7 7.0 0.00 0.00 0.00 35 1013.0
20260503193047 59 291 4.3 7.0 0.00 0.00 0.00 34 1013.0
20260503192525 59 258 1.7 8.7 0.00 0.00 0.00 34 1013.0
20260503192004 59 239 4.3 8.7 0.00 0.00 0.00 35 1013.1
20260503191519 59 318 5.2 7.8 0.00 0.00 0.00 35 1013.3
20260503191103 59 313 3.5 7.0 0.00 0.00 0.00 37 1013.3
20260503190540 58 311 2.6 7.0 0.00 0.00 0.00 36 1013.3
20260503190055 58 312 2.6 7.8 0.00 0.00 0.00 36 1013.3
20260503185529 58 304 3.5 8.7 0.00 0.00 0.00 35 1013.4
20260503185007 58 149 2.6 7.0 0.00 0.00 0.00 35 1013.4
20260503184524 57 132 0.9 7.0 0.00 0.00 0.00 34 1013.5
20260503184002 57 243 1.7 7.0 0.00 0.00 0.00 35 1013.8
20260503183543 57 354 3.5 7.0 0.00 0.00 0.00 37 1013.7
20260503183052 57 218 1.7 9.6 0.00 0.00 0.00 36 1013.8
20260503182527 57 52 2.6 9.6 0.00 0.00 0.00 36 1013.8
20260503182006 57 200 2.6 13.0 0.00 0.00 0.00 37 1013.8
20260503181512 57 266 7.0 13.0 0.00 0.00 0.00 36 1013.8
20260503181055 56 247 3.5 12.2 0.00 0.00 0.00 36 1013.9
20260503180535 57 287 6.1 12.2 0.00 0.00 0.00 36 1014.0
20260503180039 57 297 3.5 9.6 0.00 0.00 0.00 36 1014.0
20260503175515 57 337 2.6 7.8 0.00 0.00 0.00 36 1013.9
20260503175058 56 315 0.9 7.8 0.00 0.00 0.00 35 1013.6
20260503174603 56 238 2.6 8.7 0.00 0.00 0.00 35 1013.9
20260503174041 56 299 4.3 8.7 0.00 0.00 0.00 35 1014.0
20260503173519 56 303 1.7 7.8 0.00 0.00 0.00 36 1013.9
20260503173037 55 297 5.2 7.8 0.00 0.00 0.00 36 1014.1
20260503172517 55 275 3.5 9.6 0.00 0.00 0.00 37 1014.2
20260503172056 55 324 5.2 9.6 0.00 0.00 0.00 37 1014.4
20260503171510 55 314 2.6 7.8 0.00 0.00 0.00 35 1014.2
20260503171053 55 315 4.3 7.8 0.00 0.00 0.00 36 1014.3
20260503170528 55 334 2.6 9.6 0.00 0.00 0.00 37 1014.5
20260503151004 49 16 0.9 7.0 0.00 0.00 0.00 47 1015.7
20260503150547 49 251 0.9 5.2 0.00 0.00 0.00 47 1015.6